Flag for Mexico Weather past 2 weeks in Monterrey, Nuevo León, Mexico

Now
73 °F

Drizzle. Mostly cloudy.


Feels Like: 72 °F
Forecast: 70 / 84 °F
Wind: 6 mph from Southeast

Location: Monterrey / Gen Maria

Current Time: Sep 16, 2014 at 5:02:33 AM

Latest Report: Sep 16, 2014 at 3:43 AM


Visibility: 5 mi

Pressure: 30.03 "Hg

Humidity: 89%

Dew point: 70 °F

Location of MonterreyLocation

Historic Weather in Monterrey — Graph

°F

Monterrey temperature yesterday

Maximum temperature yesterday: 84 °F (at 5:49 PM)
Minimum temperature yesterday: 70 °F (at 12:46 AM)
Average temperature yesterday: 76 °F

Past Weeks' High & Low Weather Summary

 TemperatureHumidityPressure
High97 °F (Sep 1, 3:50 PM)100% (Sep 4, 5:04 AM)30.17 "Hg (Sep 4, 5:04 AM)
Low64 °F (Sep 13, 7:48 PM)24% (Sep 8, 5:47 PM)29.78 "Hg (Sep 10, 7:46 PM)
Average78 °F74%29.96 "Hg
* Reported Sep 1 3:50 AM — Sep 16 3:43 AM, Monterrey, Weather by CustomWeather, © 2014

Note: Actual official high and low records may vary slightly from our data, if they occured in-between our weather recording intervals... More about our weather records

Advertising

Monterrey weather history for previous 24 hours

 ConditionsComfort  
Time TempWeatherWind HumidityBarometerVisibility
3:43 AM
Sep 16
73 °FDrizzle. Mostly cloudy.6 mph89%30.03 "Hg5 mi
2:51 AM75 °FPassing clouds.5 mph83%30.08 "Hg15 mi
2:02 AM75 °FPassing clouds.5 mph83%30.08 "Hg15 mi
12:43 AM77 °FPassing clouds.3 mph74%30.06 "Hg15 mi
9:47 PM
Sep 15
77 °FPassing clouds.6 mph74%30.04 "Hg15 mi
8:48 PM77 °FPartly cloudy.5 mph74%30.05 "Hg15 mi
7:49 PM81 °FBroken clouds.6 mph62%30.04 "Hg15 mi
6:52 PM82 °FBroken clouds.7 mph58%29.96 "Hg15 mi
5:49 PM84 °FBroken clouds.6 mph55%30.02 "Hg15 mi
4:45 PM82 °FBroken clouds.8 mph58%30.03 "Hg15 mi
3:49 PM82 °FBroken clouds.6 mph62%30.02 "Hg15 mi
1:48 PM81 °FPartly sunny.8 mph62%30.08 "Hg10 mi
12:45 PM79 °FBroken clouds.7 mph65%30.08 "Hg10 mi
11:48 AM77 °FBroken clouds.5 mph74%30.12 "Hg7 mi
10:47 AM75 °FBroken clouds.7 mph78%30.12 "Hg7 mi
9:45 AM73 °FMostly cloudy.No wind89%30.12 "Hg4 mi
7:45 AM70 °FFog.No wind94%30.13 "Hg3 mi
5:44 AM70 °FDrizzle. Fog.5 mph94%30.09 "Hg1 mi
Weather by CustomWeather, © 2014

See weather overviewHow to use our weather pages